Location: Melara
(45.0500°N, 11.1833°E)
Time: 02:34:11
(UTC+00:00)

Cosmos 2228 - Pass Details

Date: 26 May 2022
Orbit: 586 x 617 km, 82.5° (Epoch: 26 June)

Event Time Altitude Azimuth Distance (km) Brightness Sun altitude
Rises 01:56:42 0° 350° (N) 2,891 7.1 -14.0°
Reaches altitude 10° 01:58:56 10° 349° (N) 1,978 6.2 -13.7°
Maximum altitude 02:03:19 80° 263° (W) 622 2.9 -13.2°
Drops below altitude 10° 02:07:37 10° 177° (S) 1,944 5.2 -12.7°
Enters shadow 02:07:41 10° 177° (S) 1,970 5.2 -12.7°
